Weather History for KAEX - January, 2009

Change the Weather History Date:

Thursday, January 1, 2009

  Actual Average Record
Temperature  
Mean Temperature 47 °F 49 °F  
Max Temperature 63 °F 59 °F 81 °F (1952)
Min Temperature 30 °F 39 °F 17 °F (1964)
Degree Days  
Heating Degree Days 18 16  
Month to date heating degree days 18 16  
Since 1 July heating degree days 783 805  
Moisture  
Dew Point 42 °F    
Average Humidity 71    
Maximum Humidity 89    
Minimum Humidity 50    
Precipitation  
Precipitation 0.00 in 0.13 in 2.60 in (1911)
Month to date precipitation 0.00 0.13  
Year to date precipitation 0.00 0.13  
Snow  
Snow 0.00 in - 0.40 in (2001)
Month to date snowfall 0.0  
Since 1 July snowfall 0.0  
Snow Depth 0.00 in    
Sea Level Pressure  
Sea Level Pressure 30.06 in    
Wind  
Wind Speed 6 mph (SE)    
Max Wind Speed 13 mph    
Max Gust Speed -    
Visibility 10 miles    
Events      
T = Trace of Precipitation, MM = Missing Value Source: NWS Daily Summary

Daily Weather History Graph

Daily Weather History Graph

Search for Another Location

Airport or City:

Trip Planner

Search our weather history database for the weather conditions in past years. The results will help you decide how hot, cold, wet, or windy it might be!

Date:

Astronomy

Jan. 01, 2009 Rise Set
Actual Time 7:09 AM CST 5:18 PM CST
Civil Twilight 6:42 AM CST 5:45 PM CST
Nautical Twilight 6:12 AM CST 6:15 PM CST
Astronomical Twilight 5:42 AM CST 6:45 PM CST
Moon 10:15 AM CST (1/1) 10:10 PM CST (1/1)
Length of Visible Light 11h 02m
Length of Day
10h 09m
Waxing Crescent, 23% of the Moon is Illuminated
Jan 1
Waxing Crescent
Jan 4
First Quarter
Jan 10
Full
Jan 17
Last Quarter
Jan 26
New

Hourly Weather History & Observations

Time (CST) Temp. Windchill Dew Point Humidity Pressure Visibility Wind Dir Wind Speed Gust Speed Precip Events Conditions
12:53 AM 36.0 °F 33.3 °F 26.1 °F 67% 30.23 in 10.0 mi NE 3.5 mph - N/A   Clear
1:53 AM 35.1 °F 32.2 °F 26.1 °F 70% 30.22 in 10.0 mi NE 3.5 mph - N/A   Clear
2:53 AM 34.0 °F - 28.0 °F 79% 30.20 in 10.0 mi Calm Calm - N/A   Clear
3:53 AM 35.1 °F 32.2 °F 28.0 °F 76% 30.20 in 10.0 mi NE 3.5 mph - N/A   Clear
4:53 AM 33.1 °F 30.0 °F 28.0 °F 82% 30.17 in 10.0 mi ENE 3.5 mph - N/A   Clear
6:53 AM 30.9 °F 27.5 °F 28.0 °F 89% 30.18 in 10.0 mi ESE 3.5 mph - N/A   Clear
7:53 AM 35.1 °F 32.2 °F 30.0 °F 82% 30.19 in 10.0 mi East 3.5 mph - N/A   Clear
8:53 AM 39.9 °F 34.5 °F 30.0 °F 68% 30.20 in 10.0 mi ESE 8.1 mph - N/A   Clear
9:53 AM 44.1 °F 37.7 °F 32.0 °F 63% 30.21 in 10.0 mi SSE 12.7 mph - N/A   Clear
10:53 AM 48.9 °F - 35.1 °F 59% 30.18 in 10.0 mi SSE 8.1 mph - N/A   Partly Cloudy
11:53 AM 52.0 °F - 37.0 °F 57% 30.13 in 10.0 mi SE 6.9 mph - N/A   Partly Cloudy
12:53 PM 57.9 °F - 39.9 °F 51% 30.08 in 10.0 mi ESE 8.1 mph - N/A   Clear
1:53 PM 61.0 °F - 42.1 °F 50% 30.04 in 10.0 mi Calm Calm - N/A   Clear
2:53 PM 63.0 °F - 45.0 °F 52% 30.03 in 10.0 mi ESE 8.1 mph - N/A   Clear
3:53 PM 62.1 °F - 46.0 °F 56% 30.02 in 10.0 mi ESE 12.7 mph - N/A   Clear
4:53 PM 59.0 °F - 48.0 °F 67% 30.00 in 10.0 mi SE 9.2 mph - N/A   Overcast
5:53 PM 59.0 °F - 48.0 °F 67% 30.01 in 10.0 mi SSE 5.8 mph - N/A   Overcast
6:06 PM 59.0 °F - 48.2 °F 67% 29.99 in 10.0 mi SSE 4.6 mph - N/A   Overcast
6:53 PM 57.9 °F - 50.0 °F 75% 29.99 in 10.0 mi SSE 5.8 mph - N/A   Overcast
7:41 PM 57.2 °F - 50.0 °F 77% 29.96 in 10.0 mi SE 9.2 mph - N/A   Overcast
7:53 PM 57.9 °F - 50.0 °F 75% 29.98 in 10.0 mi SE 6.9 mph - N/A   Overcast
8:53 PM 59.0 °F - 51.1 °F 75% 29.98 in 10.0 mi South 6.9 mph - N/A   Overcast
9:31 PM 59.0 °F - 51.8 °F 77% 29.96 in 10.0 mi SSE 6.9 mph - N/A   Overcast
9:49 PM 59.0 °F - 51.8 °F 77% 29.96 in 10.0 mi SSE 9.2 mph - N/A   Overcast
9:53 PM 59.0 °F - 52.0 °F 78% 29.97 in 10.0 mi SSE 9.2 mph - N/A   Overcast
10:10 PM 59.0 °F - 51.8 °F 77% 29.95 in 10.0 mi SE 9.2 mph - N/A   Overcast
10:34 PM 59.0 °F - 51.8 °F 77% 29.96 in 10.0 mi SE 6.9 mph - N/A   Overcast
10:53 PM 57.9 °F - 51.1 °F 78% 29.96 in 10.0 mi ESE 6.9 mph - N/A   Overcast
11:13 PM 57.2 °F - 51.8 °F 82% 29.95 in 10.0 mi SE 6.9 mph - N/A   Overcast
11:53 PM 57.9 °F - 51.1 °F 78% 29.96 in 10.0 mi SE 9.2 mph - N/A   Overcast